Location: Ferintosh
(52.7647°N, 112.9692°W)
Time: 21:08:38
(UTC+00:00)

A-11 Canister half - Pass Details

Date: 25 May 2024
Orbit: 1524 x 1683 km, 47.3° (Epoch: 19 June)

Event Time Altitude Azimuth Distance (km) Brightness Sun altitude
Rises 01:53:15 0° 176° (S) 4,664 11.3 13.0°
Reaches altitude 10° 01:58:20 10° 152° (SSE) 3,701 10.6 12.3°
Maximum altitude 02:02:26 14° 125° (SE) 3,429 10.3 11.7°
Drops below altitude 10° 02:06:34 10° 99° (E) 3,746 10.5 11.1°
Sets 02:11:44 0° 76° (ENE) 4,767 11.1 10.4°
